BEIDOU-3 M1 (C19)

Last updated on Sun Dec 21 2025 00:03:30 GMT+0000 (Coordinated Universal Time)

1 43001U 17069A 25353.25305488 -.00000055 00000+0 00000+0 0 9993 2 43001 56.5322 69.0186 0009566 302.1864 57.7554 1.86231412 55251
UTC large
Height (km)
Speed (km/s)
/
Latitude / Longitude
Inclination (degrees)
Orbital Period (minutes)
Azimuth
Elevation
Range (km)
Doppler Factor

Next 0 passes for location: London (51.5072 / 0.1276)

Sorry there are no passes over London.